Overview Statistics Trail Chart Weather Telemetry Raw packets
 

This is the latest recevied weather packets stored in our database for station/object KB0BDN-13. If no packets are shown the sender has not sent any weather packets the latest 10 day(s).

<< 53 54 55 56 57 58 59 >>
Time Temp. Humidity Pressure Rain* Wind** Luminosity Snow
1788011952 16.11° C 76% 1008.9 hPa 0 mm - - -
1788011195 16.11° C 76% 1008.9 hPa 0 mm - - -
1788011052 16.11° C 75% 1008.6 hPa 0 mm - - -
1788010294 15.56° C 73% 1008.6 hPa 0 mm - - -
1788010152 15.56° C 75% 1008.8 hPa 0 mm - - -
1788009394 15.56° C 74% 1008.8 hPa 0 mm - - -
1788009252 15.56° C 74% 1009 hPa 0 mm - - -
1788008496 15.56° C 75% 1009 hPa 0 mm - - -
1788007596 15° C 74% 1009.1 hPa 0 mm - - -
1788006696 14.44° C 75% 1009.2 hPa 0 mm - - -
1788006554 14.44° C 76% 1009.2 hPa 0 mm - - -
1788005796 13.89° C 79% 1009.2 hPa 0 mm - - -
1788004896 13.33° C 80% 1009.1 hPa 0 mm - - -
1788003996 13.33° C 78% 1009 hPa 0 mm - - -
1788003854 13.33° C 78% 1009.1 hPa 0 mm - - -
1788003096 12.78° C 79% 1009.1 hPa 0 mm - - -
1788002954 12.22° C 81% 1009.3 hPa 0 mm - - -
1788002196 11.67° C 86% 1009.3 hPa 0 mm - - -
1788002054 11.67° C 86% 1009.2 hPa 0 mm - - -
1788001296 11.11° C 86% 1009.2 hPa 0 mm - - -
1788001153 11.11° C 86% 1009.2 hPa 0 mm - - -
1788000395 11.11° C 85% 1009.2 hPa 0 mm - - -
1788000254 11.11° C 86% 1009.2 hPa 0 mm - - -
1787999496 11.11° C 87% 1009.2 hPa 0 mm - - -
1787999353 11.11° C 88% 1009.3 hPa 0 mm - - -

* Rain latest hour (hover to see other rain measurements)
** Current wind speed in m/s (hover to see current wind gust speed)